Orbital Elements at Epoch 2459200.5 (2020-Dec-17.0) TDB
Reference: JPL 18 (heliocentric ecliptic J2000)
Element | Value | Uncertainty (1-sigma) | Units |
e | .001111601172255902 | 4.3615e-08 | |
a | 2.242084320055026 | 1.048e-08 | au |
q | 2.239592016496556 | 9.8048e-08 | au |
i | 5.104295750063286 | 5.29e-06 | deg |
node | 9.511621950924159 | 4.4143e-05 | deg |
peri | 30.72544530935001 | 0.0024457 | deg |
M | 159.4195265107981 | 0.0024444 | deg |
tp | 2458657.480590419493 (2019-Jun-22.98059042) | 0.0083253 | TDB |
period | 1226.242429190389 3.36 | 8.5975e-06 2.354e-08 | d yr |
n | .2935797941991662 | 2.0584e-09 | deg/d |
Q | 2.244576623613495 | 1.0492e-08 | au |
|
| | Orbit Determination Parameters
Additional Information
|